Voltar ao catálogo

ASO-S

AtivoCiênciaSSO
NORAD 54029·PAYLOAD·🇨🇳 China

Lançado Oct 8, 2022 de Jiuquan Satellite Launch Center

Loading…

Próximas Passagens (próximas 24 horas)

TLE

AtualizadoSource: Space-Track

Época: Sep 14, 2026, 15:02 UTC

1 54029U 22129A   26257.62641771  .00000089  00000-0  33004-4 0  9993
2 54029  98.2797 261.4472 0014375 172.7678 187.3728 14.52095572208408

Acompanhe ASO-S em tempo real com AllMySat

Download on the App Store